• In Latvia
  • List of Countries
  • For 7 days
  • Water Temperature
  • Satellite Maps
  • Weather Map
  • Weather Widgets
  • user-avatar
    Login

    Hourly Weather Molepolole

    Today, 24 October, Tuesday

    Time Temperature Precipitation Wind Pressure Humidity
    00:00 +27°C° 0 mm 1 mps 666 mmHg 42%
    01:00 +26°C° 0 mm 1 mps 665 mmHg 44%
    02:00 +25°C° 0 mm 2 mps 665 mmHg 45%
    03:00 +25°C° 0 mm 2 mps 665 mmHg 46%
    04:00 +24°C° 0 mm 2 mps 665 mmHg 47%
    05:00 +24°C° 0 mm 2 mps 665 mmHg 48%
    06:00 +25°C° 0 mm 3 mps 665 mmHg 42%
    07:00 +27°C° 0 mm 4 mps 666 mmHg 36%
    08:00 +28°C° 0 mm 5 mps 667 mmHg 30%
    09:00 +30°C° 0 mm 5 mps 667 mmHg 27%
    10:00 +33°C° 0 mm 5 mps 667 mmHg 23%
    11:00 +35°C° 0 mm 4 mps 667 mmHg 20%
    12:00 +36°C° 0 mm 4 mps 667 mmHg 18%
    13:00 +36°C° 0 mm 3 mps 666 mmHg 16%
    14:00 +37°C° 0 mm 2 mps 666 mmHg 14%
    15:00 +37°C° 0 mm 2 mps 666 mmHg 14%
    16:00 +37°C° 0 mm 2 mps 665 mmHg 14%
    17:00 +36°C° 0 mm 2 mps 665 mmHg 14%
    18:00 +35°C° 0 mm 2 mps 665 mmHg 16%
    19:00 +34°C° 0 mm 2 mps 665 mmHg 17%
    20:00 +31°C° 0 mm 2 mps 665 mmHg 19%
    21:00 +31°C° 0 mm 2 mps 665 mmHg 21%
    22:00 +30°C° 0 mm 2 mps 665 mmHg 22%
    23:00 +29°C° 0 mm 1 mps 665 mmHg 24%

    Tomorrow, 25 October, Wednesday

    Time Temperature Precipitation Wind Pressure Humidity
    00:00 +28°C° 0 mm 1 mps 664 mmHg 25%
    01:00 +28°C° 0 mm 1 mps 664 mmHg 26%
    02:00 +27°C° 0 mm 1 mps 663 mmHg 27%
    03:00 +26°C° 0 mm 1 mps 663 mmHg 28%
    04:00 +26°C° 0 mm 1 mps 663 mmHg 29%
    05:00 +25°C° 0 mm 1 mps 663 mmHg 30%
    06:00 +27°C° 0 mm 2 mps 664 mmHg 27%
    07:00 +29°C° 0 mm 3 mps 664 mmHg 24%
    08:00 +30°C° 0 mm 4 mps 665 mmHg 20%
    09:00 +33°C° 0 mm 4 mps 665 mmHg 18%
    10:00 +35°C° 0 mm 4 mps 665 mmHg 16%
    11:00 +37°C° 0 mm 4 mps 666 mmHg 13%
    12:00 +38°C° 0 mm 4 mps 665 mmHg 13%
    13:00 +38°C° 0 mm 3 mps 664 mmHg 13%
    14:00 +38°C° 0 mm 3 mps 664 mmHg 12%
    15:00 +38°C° 0 mm 3 mps 663 mmHg 13%
    16:00 +38°C° 0 mm 2 mps 663 mmHg 13%
    17:00 +37°C° 0 mm 2 mps 663 mmHg 14%
    18:00 +36°C° 0 mm 2 mps 663 mmHg 15%
    19:00 +35°C° 0 mm 2 mps 663 mmHg 16%
    20:00 +32°C° 0 mm 2 mps 663 mmHg 18%
    21:00 +32°C° 0 mm 2 mps 663 mmHg 19%
    22:00 +31°C° 0 mm 2 mps 663 mmHg 21%
    23:00 +30°C° 0 mm 2 mps 663 mmHg 23%

    Day after tomorrow, 26 October, Thursday

    Time Temperature Precipitation Wind Pressure Humidity
    00:00 +30°C° 0 mm 2 mps 663 mmHg 24%
    01:00 +30°C° 0 mm 1 mps 662 mmHg 25%
    02:00 +29°C° 0 mm 1 mps 662 mmHg 26%
    03:00 +29°C° 0 mm 1 mps 662 mmHg 26%
    04:00 +29°C° 0 mm 1 mps 662 mmHg 27%
    05:00 +29°C° 0 mm 1 mps 662 mmHg 27%
    06:00 +30°C° 0 mm 2 mps 662 mmHg 26%
    07:00 +31°C° 0 mm 2 mps 663 mmHg 24%
    08:00 +33°C° 0 mm 3 mps 664 mmHg 22%
    09:00 +34°C° 0 mm 4 mps 664 mmHg 19%
    10:00 +36°C° 0 mm 4 mps 664 mmHg 17%
    11:00 +37°C° 0 mm 4 mps 664 mmHg 14%
    12:00 +37°C° 0 mm 5 mps 664 mmHg 14%
    13:00 +37°C° 0 mm 5 mps 663 mmHg 15%
    14:00 +37°C° 0 mm 5 mps 663 mmHg 15%
    15:00 +37°C° 0 mm 5 mps 662 mmHg 16%
    16:00 +36°C° 0 mm 4 mps 662 mmHg 16%
    17:00 +36°C° 0 mm 4 mps 662 mmHg 16%
    18:00 +34°C° 0.1 mm 4 mps 662 mmHg 20%
    19:00 +33°C° 0.1 mm 3 mps 662 mmHg 23%
    20:00 +30°C° 0.1 mm 3 mps 662 mmHg 27%
    21:00 +30°C° 0.2 mm 2 mps 662 mmHg 29%
    22:00 +29°C° 0.2 mm 2 mps 662 mmHg 32%
    23:00 +28°C° 0.2 mm 1 mps 662 mmHg 34%

    27 October, Friday

    Time Temperature Precipitation Wind Pressure Humidity
    00:00 +27°C° 0.1 mm 1 mps 662 mmHg 36%
    01:00 +27°C° 0.1 mm 2 mps 662 mmHg 37%
    02:00 +26°C° 0.1 mm 2 mps 661 mmHg 39%
    03:00 +25°C° 0 mm 2 mps 661 mmHg 38%
    04:00 +25°C° 0 mm 2 mps 662 mmHg 37%
    05:00 +24°C° 0 mm 3 mps 662 mmHg 35%
    06:00 +25°C° 0 mm 3 mps 662 mmHg 32%
    07:00 +27°C° 0 mm 4 mps 663 mmHg 28%
    08:00 +28°C° 0 mm 4 mps 664 mmHg 24%
    09:00 +30°C° 0 mm 3 mps 664 mmHg 23%
    10:00 +33°C° 0 mm 3 mps 664 mmHg 22%
    11:00 +35°C° 0 mm 2 mps 664 mmHg 20%
    12:00 +36°C° 0 mm 2 mps 664 mmHg 18%
    13:00 +36°C° 0 mm 1 mps 663 mmHg 16%
    14:00 +37°C° 0 mm 1 mps 663 mmHg 14%
    15:00 +37°C° 0 mm 2 mps 663 mmHg 13%
    16:00 +37°C° 0 mm 2 mps 662 mmHg 13%
    17:00 +37°C° 0 mm 3 mps 662 mmHg 12%
    18:00 +35°C° 0 mm 3 mps 662 mmHg 13%
    19:00 +34°C° 0 mm 4 mps 663 mmHg 14%
    20:00 +32°C° 0 mm 5 mps 663 mmHg 15%
    21:00 +29°C° 0.2 mm 6 mps 663 mmHg 25%
    22:00 +28°C° 0.2 mm 6 mps 664 mmHg 35%
    23:00 +26°C° 0.2 mm 7 mps 664 mmHg 45%

    28 October, Saturday

    Time Temperature Precipitation Wind Pressure Humidity
    00:00 +23°C° 0.1 mm 8 mps 664 mmHg 52%
    01:00 +22°C° 0.1 mm 8 mps 664 mmHg 60%
    02:00 +19°C° 0.1 mm 9 mps 664 mmHg 67%
    03:00 +20°C° 0 mm 8 mps 664 mmHg 67%
    04:00 +18°C° 0 mm 8 mps 664 mmHg 66%
    05:00 +17°C° 0 mm 8 mps 664 mmHg 66%
    06:00 +17°C° 0.1 mm 8 mps 665 mmHg 65%
    07:00 +17°C° 0.1 mm 8 mps 666 mmHg 64%
    08:00 +17°C° 0.1 mm 8 mps 666 mmHg 63%
    09:00 +18°C° 0 mm 8 mps 666 mmHg 59%
    10:00 +21°C° 0 mm 8 mps 667 mmHg 54%
    11:00 +22°C° 0 mm 9 mps 667 mmHg 49%
    12:00 +22°C° 0 mm 8 mps 666 mmHg 49%
    13:00 +22°C° 0 mm 8 mps 666 mmHg 48%
    14:00 +23°C° 0 mm 8 mps 666 mmHg 48%
    15:00 +22°C° 0 mm 8 mps 666 mmHg 48%
    16:00 +22°C° 0 mm 8 mps 666 mmHg 49%
    17:00 +22°C° 0 mm 7 mps 666 mmHg 49%
    18:00 +21°C° 0 mm 7 mps 666 mmHg 52%
    19:00 +20°C° 0 mm 7 mps 666 mmHg 54%
    20:00 +18°C° 0 mm 7 mps 667 mmHg 56%
    21:00 +18°C° 0 mm 7 mps 667 mmHg 58%
    22:00 +17°C° 0 mm 8 mps 666 mmHg 60%
    23:00 +16°C° 0 mm 8 mps 666 mmHg 62%

    29 October, Sunday

    Time Temperature Precipitation Wind Pressure Humidity
    00:00 +16°C° 0 mm 8 mps 666 mmHg 63%
    01:00 +15°C° 0 mm 8 mps 666 mmHg 64%
    02:00 +15°C° 0 mm 7 mps 666 mmHg 65%
    03:00 +14°C° 0 mm 7 mps 666 mmHg 66%
    04:00 +14°C° 0 mm 7 mps 666 mmHg 68%
    05:00 +14°C° 0 mm 7 mps 666 mmHg 69%
    06:00 +14°C° 0 mm 7 mps 667 mmHg 67%
    07:00 +15°C° 0 mm 7 mps 667 mmHg 66%
    08:00 +15°C° 0 mm 7 mps 668 mmHg 64%
    09:00 +17°C° 0 mm 7 mps 668 mmHg 58%
    10:00 +20°C° 0 mm 7 mps 668 mmHg 52%
    11:00 +21°C° 0 mm 7 mps 668 mmHg 45%
    12:00 +23°C° 0 mm 7 mps 668 mmHg 42%
    13:00 +24°C° 0 mm 7 mps 668 mmHg 38%
    14:00 +27°C° 0 mm 6 mps 667 mmHg 35%
    15:00 +27°C° 0 mm 6 mps 667 mmHg 35%
    16:00 +27°C° 0 mm 6 mps 667 mmHg 35%
    17:00 +27°C° 0 mm 5 mps 666 mmHg 35%
    18:00 +26°C° 0 mm 5 mps 667 mmHg 38%
    19:00 +23°C° 0 mm 4 mps 667 mmHg 40%
    20:00 +22°C° 0 mm 4 mps 667 mmHg 43%
    21:00 +22°C° 0 mm 4 mps 667 mmHg 45%
    22:00 +21°C° 0 mm 4 mps 667 mmHg 46%
    23:00 +21°C° 0 mm 4 mps 667 mmHg 48%

    30 October, Monday

    Time Temperature Precipitation Wind Pressure Humidity
    00:00 +20°C° 0 mm 4 mps 667 mmHg 50%
    01:00 +20°C° 0 mm 3 mps 667 mmHg 51%
    02:00 +19°C° 0 mm 3 mps 667 mmHg 53%
    03:00 +19°C° 0 mm 3 mps 667 mmHg 54%
    04:00 +18°C° 0 mm 3 mps 667 mmHg 55%
    05:00 +18°C° 0 mm 3 mps 667 mmHg 56%
    06:00 +19°C° 0 mm 4 mps 668 mmHg 53%
    07:00 +20°C° 0 mm 4 mps 669 mmHg 50%
    08:00 +21°C° 0 mm 4 mps 669 mmHg 47%
    09:00 +23°C° 0 mm 4 mps 670 mmHg 41%
    10:00 +26°C° 0 mm 4 mps 670 mmHg 36%
    11:00 +28°C° 0 mm 4 mps 670 mmHg 30%
    12:00 +29°C° 0 mm 4 mps 669 mmHg 27%
    13:00 +30°C° 0 mm 4 mps 669 mmHg 23%
    14:00 +32°C° 0 mm 4 mps 668 mmHg 19%
    15:00 +32°C° 0 mm 4 mps 668 mmHg 19%
    16:00 +32°C° 0 mm 4 mps 668 mmHg 18%
    17:00 +32°C° 0 mm 4 mps 667 mmHg 18%
    18:00 +30°C° 0 mm 4 mps 667 mmHg 20%
    19:00 +28°C° 0 mm 3 mps 667 mmHg 22%
    20:00 +27°C° 0 mm 3 mps 667 mmHg 24%
    21:00 +26°C° 0 mm 3 mps 667 mmHg 25%
    22:00 +25°C° 0 mm 3 mps 667 mmHg 26%
    23:00 +25°C° 0 mm 2 mps 667 mmHg 27%
    Show more